星链-31157 (STARLINK-31157 )

导读

STARLINK-31157是美国SpaceX公司星链(Starlink)星座中的一颗卫星,于2024年1月7日发射升空。星链项目旨在通过部署近地轨道卫星群,为全球偏远地区提供低成本宽带互联网服务,这颗卫星加入后进一步扩充了星链在轨组网规模,助力项目实现全球覆盖目标,为偏远、传统基础设施薄弱区域提供高速低延迟的网络连接。

Basic Information
目录编号:
58735
目录名称:
STARLINK-31157
国际标识:
2024-005H
轨道中心:
EARTH
卫星名称:
星链-31157
卫星全名:
星链-31157 (STARLINK-31157 )
卫星状态:
在轨 (已飞行971 天)
发射日期:
2024-01-07 UTC
国别 :
美国 (US)
星等 :
--
Orbit Information
数据来源 国际轨道数据
星历时间: 2026-09-02T20:58:57+0800
1天前
查看轨道信息
半长轴: 6861.19km
偏心率: 0.0001646
轨道倾角: 43.004°
近地点辐角 265.082°
升交点赤经 300.744°
平近点角 94.984°
近地点: 481.923km
远地点: 484.183km
周期: 94.267分钟
每日圈数: 15.275788
Detailed Information
固有亮度:
5
最大亮度:
0.3
卫星平台:
Starlink v2.0 mini
覆盖范围:
全球
运营商:
太空探索技术公司
运营商所在国:
美国
制造商(研发单位):
太空探索技术公司
制造商所在国:
美国
使用方式:
暂无
Satellite Introduction
星链(Starlink)计划是由太空探索技术公司(SpaceX)提出的一个巨型低轨卫星互联网星座项目,计划在2019年至2024年间在太空搭建由约1.2万颗卫星组成的“星链”网络,其中1584颗将部署在地球上空550千米处的近地轨道,并从2020年开始工作。该卫星仍在工作。
2D Orbit Map
3D Orbit Map
Orbit Altitude Analysis Chart
Orbit Inclination Analysis Chart
Orbit Comprehensive Analysis Chart
View Comprehensive Chart
Conjunction Data List
Event ID Objects TCA Miss Dist (km) Collision Risk Probability Collision Risk Index (CRI) Action
CDM_260904-052905-873506-652821
2026-09-04T
05:29:15+0000
0.189 km
中距离
5.950811E-4 高风险 0.9
CDM_260905-035105-873506-385921
2026-09-05T
03:51:52+0000
0.692 km
远距离
6.719688E-5 中风险 0.72
CDM_260904-123205-873506-652821
2026-09-04T
12:32:56+0000
0.896 km
远距离
1.860987E-5 中风险 0.6
CDM_260905-052605-873506-385921
2026-09-05T
05:26:01+0000
1.180 km
极远距离
1.145216E-5 中风险 0.56
CDM_260905-021705-873506-385921
2026-09-05T
02:17:42+0000
2.443 km
极远距离
1.436573E-6 低风险 0.38
CDM_260905-010903-943205-873521
ICUBE 1 (39432)
2026-09-05T
01:09:28+0000
2.567 km
极远距离
1.242457E-6 低风险 0.37
CDM_260904-105805-873506-652821
2026-09-04T
10:58:47+0000
2.241 km
极远距离
1.151342E-6 低风险 0.36
CDM_260904-070305-873506-652821
2026-09-04T
07:03:24+0000
2.315 km
极远距离
1.079694E-6 低风险 0.36
CDM_260904-035505-873506-652821
2026-09-04T
03:55:06+0000
2.375 km
极远距离
1.030259E-6 低风险 0.35